Location: Newark
(9.4667°S, 159.8167°E)
Time: 23:23:29
(UTC+00:00)

Courier 1B Rocket - Pass Details

Date: 22 November 2019
Orbit: 920 x 1202 km, 28.2° (Epoch: 09 December)

Event Time Altitude Azimuth Distance (km) Brightness Sun altitude
Rises 17:56:37 0° 230° (SW) 3,796 7.8 -12.9°
Reaches altitude 10° 18:00:36 10° 209° (SSW) 2,782 7.3 -12.0°
Maximum altitude 18:04:34 16° 172° (S) 2,309 7.4 -11.1°
Drops below altitude 10° 18:08:25 10° 135° (SE) 2,680 8.5 -10.2°
Sets 18:12:09 0° 114° (ESE) 3,588 10.4 -9.3°
